This is the latest recevied weather packets stored in our database for station/object OE-11213. If no packets are shown the sender has not sent any weather packets the latest 10 day(s).
| Time | Temp. | Humidity | Pressure | Rain* | Wind** | Luminosity | Snow |
|---|---|---|---|---|---|---|---|
| 1788122504 | 20.56° C | 79% | 1015.4 hPa | 0 mm | - | 0 W/m² | - |
| 1788122130 | 21.11° C | 75% | 1015.3 hPa | 0 mm | - | 0 W/m² | - |
| 1788121530 | 21.11° C | 75% | 1015.2 hPa | 0 mm | - | 0 W/m² | - |
| 1788120704 | 21.67° C | 73% | 1015.2 hPa | 0 mm | - | 0 W/m² | - |
| 1788120331 | 21.67° C | 73% | 1015.1 hPa | 0 mm | - | 0 W/m² | - |
| 1788119731 | 21.67° C | 73% | 1015 hPa | 0 mm | - | 0 W/m² | - |
| 1788118904 | 21.67° C | 70% | 1015 hPa | 0 mm | - | 0 W/m² | - |
| 1788118531 | 22.22° C | 68% | 1014.8 hPa | 0 mm | - | 0 W/m² | - |
| 1788117931 | 22.22° C | 68% | 1014.7 hPa | 0 mm | - | 0 W/m² | - |
| 1788117103 | 22.78° C | 69% | 1014.4 hPa | 0 mm | - | 0 W/m² | - |
| 1788116730 | 23.33° C | 65% | 1014.3 hPa | 0 mm | - | 0 W/m² | - |
| 1788116130 | 23.33° C | 66% | 1014.1 hPa | 0 mm | - | 0 W/m² | - |
| 1788115303 | 23.89° C | 61% | 1013.8 hPa | 0 mm | - | 0 W/m² | - |
| 1788114929 | 24.44° C | 60% | 1013.4 hPa | 0 mm | - | 0 W/m² | - |
| 1788114330 | 25° C | 58% | 1013.2 hPa | 0 mm | - | 0 W/m² | - |
| 1788113503 | 25.56° C | 56% | 1013 hPa | 0 mm | - | 0 W/m² | - |
| 1788113130 | 26.11° C | 49% | 1012.7 hPa | 0 mm | - | 7 W/m² | - |
| 1788112530 | 26.67° C | 48% | 1012.7 hPa | 0 mm | - | 15 W/m² | - |
| 1788111942 | 26.67° C | 48% | 1012.5 hPa | 0 mm | - | 22 W/m² | - |
| 1788111330 | 27.22° C | 45% | 1012.4 hPa | 0 mm | - | 36 W/m² | - |
| 1788110730 | 27.22° C | 46% | 1012.4 hPa | 0 mm | - | 44 W/m² | - |
| 1788109903 | 27.78° C | 44% | 1012.3 hPa | 0 mm | - | 58 W/m² | - |
| 1788109530 | 27.78° C | 43% | 1012.3 hPa | 0 mm | - | 94 W/m² | - |
| 1788108929 | 28.33° C | 42% | 1012.2 hPa | 0 mm | - | 116 W/m² | - |
| 1788108103 | 28.33° C | 41% | 1012.2 hPa | 0 mm | - | 145 W/m² | - |
* Rain latest hour (hover to see other rain measurements)
** Current wind speed in m/s (hover to see current wind gust speed)